Wind_Speed
24 22 20 19 17 16 17 19 20 21 22 23 22 19 18 15 11 11 11 11 10 13 16 17 11 9 12 10 8 10 9 8 7 4 7 10 12 12 11 11 11 10 9 10 12 12 13 17 20 22 25 28 28 27 30 32 31 31 34 34 34 34 33 32 32 35 35 35 35 34 33 33 33 32 30 30 30 30 31 31 30 28 28 29 31 33 34
21 24 24 23 20 18 18 20 20 20 21 23 23 21 22 21 18 17 15 11 12 13 15 19 17 12 11 8 6 9 12 13 10 6 9 11 10 11 11 10 10 9 10 11 12 12 13 14 18 20 22 26 27 27 28 31 31 31 34 34 33 33 33 32 32 33 33 33 32 32 32 32 32 32 30 28 28 28 29 30 30 27 26 27 27 28 29
15 21 24 25 23 20 20 20 19 20 22 24 24 21 21 20 19 20 19 14 13 12 13 16 16 14 15 11 8 10 12 14 14 12 14 16 14 13 13 12 11 10 10 11 12 13 14 15 18 21 22 24 26 26 27 30 31 30 33 35 33 32 33 32 32 33 32 31 31 31 30 30 30 30 28 26 26 26 25 27 28 27 26 26 27 26 26
11 17 20 24 24 21 22 22 21 23 23 21 18 15 16 17 16 16 17 14 11 10 11 14 13 13 17 17 15 13 10 12 14 15 15 15 14 16 15 13 13 13 12 13 14 15 15 16 20 22 22 23 26 27 28 30 30 29 32 34 33 32 32 32 32 32 32 30 29 29 29 28 28 27 26 24 23 23 23 23 26 26 25 25 27 27 26
11 15 17 17 17 17 18 19 21 23 21 19 16 12 16 20 17 13 12 10 7 7 10 12 13 14 16 15 14 13 11 10 10 10 13 14 12 14 16 15 15 16 15 15 16 16 16 19 23 26 25 24 26 27 28 30 30 28 30 33 33 31 31 32 32 32 31 29 28 28 28 27 25 25 25 24 22 22 22 21 23 25 24 23 24 26 27
11 15 16 14 14 14 12 11 16 20 21 22 19 18 20 21 16 13 13 12 11 10 10 11 12 13 11 9 9 10 10 8 5 6 10 13 13 12 14 16 16 15 14 14 15 17 21 24 27 28 27 25 26 27 27 28 29 27 28 31 31 30 30 30 31 31 30 28 27 26 26 25 25 24 24 24 22 21 20 19 20 22 23 21 20 23 26
10 11 13 14 14 13 11 10 12 15 19 22 21 21 22 19 17 14 9 9 12 12 12 12 10 11 12 11 9 10 12 11 9 10 11 11 12 10 10 14 17 16 15 15 15 17 23 27 26 26 26 26 26 26 26 28 29 26 27 29 29 29 30 29 30 30 29 27 26 25 25 25 24 23 22 22 21 19 17 16 17 20 21 20 19 20 23
9 9 12 12 10 10 11 12 13 13 15 18 20 21 21 19 20 14 6 7 8 6 9 15 14 13 15 14 10 11 14 16 15 15 15 12 12 10 7 10 14 16 16 17 18 20 23 25 25 25 27 27 26 26 27 29 28 25 27 28 28 29 29 28 29 29 28 27 25 25 25 24 22 21 20 20 19 18 18 16 15 16 19 20 19 19 20
9 9 11 10 9 11 12 12 10 6 5 7 8 10 12 13 15 10 6 8 10 12 10 10 9 10 14 13 10 13 18 19 19 20 20 17 15 13 11 10 11 18 22 22 23 24 25 26 27 27 27 28 27 26 27 28 27 26 26 26 27 28 28 27 28 28 27 26 24 24 23 22 20 19 18 17 17 18 19 17 13 12 16 19 19 18 19
10 9 10 10 11 12 10 7 4 4 2 2 4 3 4 5 7 6 7 8 9 12 13 9 7 7 8 8 8 13 20 22 21 22 22 20 20 17 14 14 12 17 24 25 26 28 27 27 28 29 29 29 27 25 27 28 27 26 25 25 26 26 26 26 26 26 25 24 23 23 22 20 19 18 17 16 16 17 17 16 13 13 16 17 16 16 16
10 10 10 10 10 9 7 6 5 4 1 1 4 2 4 3 8 9 8 8 8 9 11 10 8 7 6 5 6 11 16 18 17 17 19 21 23 19 17 20 17 16 23 26 26 27 26 25 29 31 31 29 27 25 26 27 26 25 25 26 26 26 26 26 25 25 25 24 23 23 22 20 19 19 17 16 15 14 14 12 11 13 16 15 13 13 15
9 10 10 8 7 5 6 8 6 4 4 2 1 5 4 5 9 9 8 8 8 8 10 10 7 5 6 7 8 10 13 14 14 13 14 16 18 18 19 21 16 17 22 22 20 21 22 25 30 32 31 28 25 24 26 27 26 25 26 27 26 27 27 26 26 25 25 24 24 23 22 21 20 19 18 16 14 13 12 10 10 12 15 15 14 13 15
9 9 9 8 7 5 7 7 5 4 5 4 6 5 1 5 7 8 8 8 8 8 8 7 6 7 8 10 13 17 16 12 9 8 6 7 8 13 15 9 10 15 16 16 17 18 22 25 28 30 29 25 22 23 25 25 25 26 28 28 27 28 28 27 26 25 24 24 23 22 22 21 20 19 18 16 15 14 11 10 10 11 13 13 13 14 14
10 10 9 8 6 5 7 9 8 5 5 6 4 1 2 4 7 9 9 10 10 10 9 8 7 10 12 14 16 16 15 12 9 5 1 8 12 10 6 13 18 14 11 13 15 16 20 24 26 28 28 24 22 23 23 23 26 29 30 30 29 29 28 27 26 24 24 24 23 21 21 21 20 18 17 16 15 14 11 10 11 11 12 13 12 13 14
9 9 10 9 7 6 8 9 9 6 4 2 3 4 4 6 9 10 10 11 12 12 12 11 11 12 13 15 16 14 10 9 9 7 3 6 8 6 3 12 16 14 11 11 13 17 20 24 25 26 25 22 22 22 21 23 29 31 31 31 30 29 28 27 26 25 25 24 22 21 22 22 20 18 17 16 17 16 13 11 11 12 14 14 13 13 16
9 10 9 5 2 3 7 6 4 3 4 6 6 5 4 6 8 8 9 11 13 13 13 14 13 13 11 11 12 10 6 7 6 4 4 3 10 9 6 7 11 12 11 11 14 18 21 23 24 24 24 22 21 19 21 27 31 32 32 32 31 29 28 26 25 25 25 24 23 23 24 23 21 19 17 17 17 17 14 11 11 13 15 15 15 16 16
3 2 1 1 3 2 4 5 5 7 9 8 8 6 5 5 6 6 6 9 12 13 14 13 12 12 11 11 12 10 9 8 6 2 2 2 7 10 9 9 11 12 12 13 14 16 18 21 22 23 24 25 21 19 24 29 32 32 32 31 30 29 27 26 26 26 24 23 23 24 24 24 23 21 19 17 17 16 13 13 13 14 15 16 16 15 14
4 7 7 6 7 5 5 6 6 8 9 7 7 7 6 5 6 7 7 9 11 13 13 12 11 12 13 13 13 13 12 12 12 9 7 3 4 9 10 9 12 14 15 15 14 14 17 20 21 20 24 26 24 23 27 30 31 31 31 30 29 27 26 26 26 26 23 22 22 23 23 23 23 22 21 19 18 16 14 14 15 15 16 16 15 14 13
3 4 7 10 11 7 4 7 8 10 11 10 8 8 6 7 9 9 10 12 13 14 14 13 11 12 14 14 13 12 12 12 13 11 10 9 5 4 10 12 13 13 13 13 12 12 15 20 23 23 24 26 26 27 29 28 29 30 31 29 27 25 24 24 24 22 21 20 20 20 19 19 19 20 20 19 18 17 16 15 15 15 15 15 14 13 13
5 2 2 8 14 12 9 9 10 11 13 13 13 12 11 12 13 12 14 15 14 15 15 14 13 12 13 14 13 11 11 11 11 9 9 11 13 10 2 8 12 13 11 11 13 12 13 20 24 24 24 26 27 28 27 26 28 29 28 26 24 22 21 21 21 20 19 20 19 17 15 14 15 16 17 17 17 17 16 15 16 17 16 14 13 14 14
6 5 3 3 12 14 14 13 12 11 13 14 16 16 16 15 15 15 17 17 16 16 16 15 15 14 14 14 13 11 11 11 11 10 9 9 10 12 14 12 9 13 12 12 14 15 16 20 23 23 24 26 26 26 26 26 28 28 26 25 23 21 20 20 19 19 19 19 17 15 14 14 15 15 13 14 15 14 12 11 13 15 14 12 14 15 14
3 4 1 1 7 9 10 12 13 12 12 14 15 16 16 16 15 15 16 17 17 17 17 16 14 12 11 12 12 11 10 9 9 10 11 9 10 10 12 13 10 10 13 15 17 19 19 21 22 23 23 23 23 24 24 25 27 29 26 24 22 21 20 19 19 19 18 17 16 15 14 16 18 16 13 12 13 13 11 8 8 9 11 13 15 14 13
2 4 3 2 6 9 8 10 12 11 11 13 15 15 15 15 15 15 16 16 16 16 17 17 15 11 9 10 11 11 10 8 7 7 7 4 2 2 3 6 2 5 13 18 19 19 20 21 21 21 21 22 22 22 23 24 27 27 25 22 21 19 18 18 18 18 17 17 16 15 14 16 19 19 17 15 13 11 10 8 8 9 12 14 15 14 13
4 5 4 5 8 11 10 9 10 10 10 11 13 14 14 14 14 15 16 15 15 15 15 17 17 15 13 12 12 11 10 8 5 5 6 5 9 10 9 7 6 8 14 18 18 18 19 20 20 20 21 21 21 21 22 23 23 23 23 21 19 18 18 20 20 18 17 18 17 15 15 16 17 17 17 17 14 11 10 9 10 11 13 13 14 14 13
4 6 6 9 11 11 10 9 10 10 9 10 11 12 12 13 15 15 15 14 14 14 14 14 14 15 16 15 13 12 11 11 12 11 8 7 9 11 12 14 15 14 16 18 18 19 20 20 20 20 19 19 19 19 19 19 20 20 20 18 17 19 22 22 20 17 18 19 17 16 16 17 16 14 14 14 13 12 11 11 11 12 13 13 13 13 12
4 4 7 11 13 10 9 9 9 10 10 10 10 11 12 12 13 14 14 13 13 13 13 12 11 13 15 14 14 14 13 13 16 16 14 13 14 15 16 18 18 18 18 19 18 19 19 18 18 18 17 17 17 16 16 16 17 16 14 15 18 22 24 22 19 19 20 19 17 16 17 17 16 15 13 13 14 15 13 12 11 11 11 12 13 13 13
5 2 3 8 11 10 10 10 10 10 10 9 9 11 11 11 11 11 12 13 13 14 14 13 12 12 13 14 13 13 14 14 15 16 15 15 17 19 19 17 18 18 18 17 17 17 17 17 16 16 15 14 14 14 14 14 13 11 12 17 21 22 21 21 21 22 21 20 19 18 17 16 16 15 14 12 14 15 14 13 11 11 10 11 12 13 13
7 4 4 8 11 11 11 10 10 11 11 10 10 10 10 11 12 12 12 13 13 13 13 14 14 12 11 12 12 12 13 15 14 14 15 17 19 22 24 21 18 18 16 15 15 15 15 16 16 16 14 12 11 12 12 11 11 12 15 18 18 18 18 19 20 21 22 22 21 20 18 18 17 16 15 15 14 14 14 14 13 13 12 13 14 13 13
9 8 8 10 11 11 10 10 9 10 10 10 10 10 11 12 13 12 11 11 12 12 12 13 13 11 10 11 11 11 11 13 14 14 16 18 20 22 24 23 20 19 18 16 14 12 12 14 14 14 12 10 9 10 10 10 11 13 15 15 15 15 16 16 17 19 20 19 20 22 21 20 18 17 17 17 17 15 14 14 14 15 15 17 17 15 14
9 9 9 10 11 12 12 11 10 10 10 9 10 11 11 12 11 9 9 9 10 12 12 11 10 11 11 10 9 9 10 11 12 13 15 18 19 20 23 23 19 16 16 17 16 13 10 9 9 10 9 7 8 10 10 10 10 12 13 14 14 15 15 14 15 18 17 16 19 22 21 17 15 15 15 14 15 15 15 15 16 15 15 16 16 14 15
11 11 12 12 12 13 12 10 9 9 9 9 11 11 11 11 11 10 8 7 8 11 12 11 9 9 9 8 8 9 10 10 11 12 13 15 16 18 19 19 15 12 12 15 17 16 13 9 6 5 4 4 7 9 9 10 12 12 13 13 14 15 16 14 14 16 15 16 18 19 16 13 12 12 13 13 12 13 15 17 16 15 14 14 14 14 17
11 12 13 12 11 11 11 9 9 10 10 10 11 11 10 10 11 11 10 8 7 8 8 7 8 8 9 9 9 9 9 9 10 11 12 13 13 14 15 14 13 12 12 14 15 16 16 14 7 2 3 3 5 7 9 12 13 12 12 13 14 15 16 15 14 14 14 15 16 15 13 13 13 12 12 13 12 13 15 14 13 14 15 14 14 17 20
10 11 10 9 9 9 9 9 8 9 10 10 10 9 9 9 10 10 9 8 7 6 4 1 2 3 4 6 6 6 8 8 7 8 10 11 12 14 14 12 11 11 11 12 14 15 17 16 9 4 3 1 2 5 8 10 11 10 11 13 13 15 16 13 12 13 13 14 14 14 13 13 14 13 13 12 11 13 14 13 11 13 14 13 15 17 18
9 9 8 7 7 8 8 8 7 7 8 9 8 8 8 9 9 8 8 7 7 6 4 3 3 3 2 2 2 3 5 4 2 3 6 8 10 12 13 12 11 10 9 9 11 14 16 14 9 6 5 3 3 5 7 9 9 9 11 13 13 14 13 11 10 12 13 12 13 14 13 12 11 12 12 11 11 12 14 13 12 13 12 11 13 15 15
9 8 8 8 9 8 8 8 8 8 8 8 8 8 7 7 8 8 8 7 7 7 7 7 7 6 6 6 6 5 5 4 3 3 4 4 4 7 9 8 8 8 7 3 4 8 10 9 7 6 5 5 6 8 9 10 9 9 10 13 14 13 11 10 11 11 10 10 11 11 10 10 8 8 9 9 9 10 11 11 11 11 11 12 12 15 15
8 8 7 7 9 9 9 9 8 8 7 7 7 8 7 7 8 8 8 7 8 8 7 8 8 7 7 7 7 7 7 6 6 6 5 3 2 4 5 4 5 6 4 2 1 4 5 4 5 6 6 6 6 3 6 7 8 8 8 11 13 12 11 11 9 7 7 10 10 8 9 11 12 11 10 10 9 8 9 10 9 10 13 14 14 16 17
8 8 7 7 8 9 8 8 8 7 7 8 8 8 8 8 9 9 8 7 8 7 7 8 8 7 7 7 6 6 6 6 6 5 5 4 5 5 4 4 7 6 3 4 7 8 7 7 6 4 5 6 3 4 7 6 6 8 9 9 10 10 10 10 9 7 10 12 11 9 10 13 13 11 10 9 8 8 8 9 9 10 13 15 16 17 17
9 9 8 8 7 7 7 8 9 9 9 9 9 9 9 8 9 9 8 8 8 7 7 8 9 8 7 7 6 6 5 5 5 5 4 3 5 6 6 6 7 7 6 6 9 9 8 7 5 3 3 4 4 6 5 4 6 7 8 8 8 8 8 9 9 10 12 13 12 11 12 11 10 9 9 8 8 8 8 8 8 7 10 14 16 15 14
9 9 8 8 6 5 6 9 11 11 10 9 8 8 8 9 9 9 9 9 9 8 8 8 9 8 7 6 6 7 7 6 6 6 5 3 4 5 6 6 7 7 6 6 7 7 8 7 5 5 5 5 6 7 4 3 5 6 7 8 8 8 10 11 11 11 13 13 12 12 11 9 8 8 8 8 8 7 7 8 7 5 5 8 12 12 11
9 9 9 8 7 6 7 8 9 10 11 10 9 9 10 10 11 11 10 9 9 10 10 9 7 5 5 4 5 6 8 9 9 8 8 6 5 6 6 7 8 8 7 7 6 7 7 7 6 5 5 6 6 6 5 6 6 6 8 10 10 10 12 13 12 11 11 11 11 10 9 9 9 8 7 8 9 8 7 7 7 6 6 6 10 11 11
9 9 9 9 9 8 8 9 10 11 11 12 12 12 12 12 11 10 9 8 9 10 10 9 7 6 6 6 7 7 8 10 11 10 9 8 7 5 4 6 8 9 8 7 6 6 7 8 7 5 5 6 6 6 5 6 7 6 7 9 9 10 12 12 12 11 9 9 9 9 9 10 10 9 8 8 8 8 9 9 9 9 9 9 11 13 13
10 10 10 10 10 9 9 9 10 10 11 12 12 13 13 12 11 10 8 8 8 8 8 9 10 10 11 11 10 9 8 9 10 11 10 10 8 6 4 5 8 10 9 7 6 6 6 6 7 7 7 7 7 6 5 5 5 5 5 6 7 8 9 9 10 10 10 9 8 8 8 9 11 12 11 11 11 12 13 12 10 7 5 6 7 8 9
10 10 10 9 8 9 10 10 10 10 11 11 12 13 13 12 11 10 10 9 9 8 9 9 10 10 9 9 9 9 9 9 10 9 8 9 10 9 7 7 8 10 11 9 8 8 8 7 8 9 9 8 8 8 6 3 4 4 4 5 6 6 7 7 7 7 7 7 7 7 7 7 9 12 13 12 11 11 11 9 6 4 3 4 5 5 4
10 10 9 8 8 8 9 10 10 9 9 10 11 11 11 11 11 11 10 9 9 10 10 10 10 9 9 8 8 7 8 9 10 8 6 6 8 11 11 9 9 11 12 10 9 9 9 8 7 7 7 7 8 8 7 5 4 4 4 4 5 5 5 6 6 8 7 6 6 8 9 9 8 9 6 5 5 5 6 6 5 4 5 6 6 3 2
10 10 9 9 9 8 8 8 8 8 9 10 11 11 11 10 10 9 8 8 8 9 9 9 9 9 8 9 9 8 8 9 10 10 7 5 5 8 10 10 10 11 11 10 8 8 8 7 6 5 6 7 7 6 6 6 6 4 3 4 5 5 5 4 5 6 7 8 8 7 7 7 7 8 5 5 4 3 4 3 3 1 0 1 1 2 3
9 9 9 8 8 8 8 8 9 10 10 10 10 10 10 10 8 6 5 5 4 5 7 9 8 8 8 10 10 10 9 9 10 10 8 7 7 7 9 10 10 10 9 9 9 8 7 6 6 5 5 6 6 5 4 5 5 4 2 2 3 4 4 4 4 4 5 6 7 6 5 6 6 7 9 8 5 5 7 7 4 3 4 4 2 4 4
8 9 8 7 6 6 7 8 10 10 9 7 6 6 8 9 9 9 9 8 7 4 7 10 11 11 12 14 13 11 10 9 9 10 10 7 7 8 7 8 9 9 8 7 8 8 7 5 5 3 3 4 7 7 2 2 4 5 5 4 4 4 3 3 4 5 6 6 5 6 6 5 4 4 6 10 7 3 3 4 3 4 4 4 6 7 6
8 8 9 9 8 7 8 9 9 8 6 5 6 6 7 8 9 10 12 14 13 10 10 13 14 13 12 13 13 12 12 10 8 10 12 13 12 9 7 7 10 10 8 6 6 7 8 7 5 3 3 4 6 7 6 5 2 3 6 7 6 7 6 5 4 6 9 8 4 3 5 4 3 4 1 3 3 4 4 1 3 4 5 5 5 5 6
9 9 10 11 10 9 9 8 8 7 7 7 8 9 9 7 7 7 9 11 12 11 11 12 13 12 12 12 13 14 14 13 12 12 13 16 17 16 13 9 8 9 9 7 4 4 5 6 5 3 2 4 6 7 8 9 8 4 0 1 2 4 7 6 3 1 5 7 6 4 4 5 5 4 4 5 4 4 6 5 2 1 1 3 3 4 6
8 9 9 9 9 9 9 7 7 7 8 9 9 10 11 9 7 8 8 9 9 9 9 10 12 13 13 12 12 13 14 15 16 14 13 13 15 17 17 16 12 9 8 8 6 2 1 2 3 2 2 3 6 7 7 9 10 7 4 3 4 2 1 3 4 3 2 2 5 7 7 7 7 6 5 5 6 4 3 3 3 1 1 4 5 5 7
7 7 7 7 8 10 10 9 8 8 8 8 8 10 10 9 7 6 7 8 9 9 8 9 12 14 13 11 10 11 12 14 15 15 15 15 14 13 13 15 16 14 13 13 13 10 7 3 1 1 1 3 5 6 6 8 9 8 7 6 6 5 4 3 3 3 3 4 4 3 3 4 6 6 7 7 8 7 5 5 5 4 5 6 6 6 7
11 11 10 10 11 11 10 9 9 9 8 8 10 10 9 8 8 7 8 9 9 9 9 9 10 12 14 13 11 11 11 12 13 15 17 17 16 14 12 13 15 16 15 14 14 15 15 12 8 6 6 7 8 7 7 7 7 6 7 8 8 8 8 8 7 5 4 4 5 6 7 7 6 6 7 8 8 7 8 8 8 8 9 9 8 7 8
Wind_Direction
226 236 238 238 233 222 220 221 218 216 220 229 236 235 229 228 236 241 226 219 235 248 255 259 249 225 234 230 190 185 202 222 228 191 152 156 155 153 156 163 171 174 169 168 170 173 176 182 187 188 189 194 197 196 194 195 193 189 186 186 185 182 184 187 189 190 193 196 198 200 201 202 204 205 206 207 207 204 202 204 208 208 205 204 205 205 206
217 225 234 241 245 239 231 229 225 221 219 221 230 240 237 231 236 244 238 230 235 237 242 253 262 266 257 235 191 190 195 206 218 183 168 189 178 158 165 171 173 177 170 164 168 169 174 183 188 190 191 193 196 195 192 193 195 189 184 185 184 182 183 186 187 188 191 195 197 199 199 201 203 205 206 207 206 204 203 205 206 208 209 206 202 202 204
229 224 223 228 240 247 249 247 238 235 234 223 216 225 237 238 239 240 238 238 242 239 237 243 248 256 264 264 243 223 203 200 212 209 204 207 189 169 177 177 175 183 176 167 169 171 177 186 190 193 193 192 194 195 192 193 195 189 182 182 183 182 182 184 184 186 189 193 195 196 198 199 202 203 204 206 205 204 205 205 204 208 211 207 201 199 200
241 237 226 219 225 236 244 247 242 240 245 240 223 215 225 237 246 244 236 231 233 231 230 236 235 233 244 255 258 253 234 213 215 214 213 211 187 170 176 177 176 182 180 174 175 178 181 186 189 193 194 192 194 195 193 193 194 189 181 180 181 181 180 181 182 183 187 190 191 192 195 197 199 201 202 203 203 205 208 208 205 207 212 210 206 203 198
233 239 238 226 223 229 233 235 237 239 245 249 245 237 229 227 232 244 248 244 246 244 234 234 236 233 233 238 246 254 250 234 230 221 215 217 203 177 175 181 183 181 181 180 180 182 184 187 190 192 192 193 196 196 191 190 193 188 179 178 179 179 178 178 179 181 184 186 187 189 192 195 196 197 199 201 202 205 210 213 211 210 212 214 213 208 201
230 230 237 238 232 233 231 229 233 238 245 247 242 239 237 231 223 223 229 235 241 246 247 247 247 248 249 242 236 247 255 251 253 252 233 226 225 204 180 180 182 179 180 183 182 183 185 188 191 190 191 193 197 197 190 187 192 188 177 175 177 175 176 177 177 180 182 183 184 186 189 191 192 195 197 198 200 203 208 213 214 211 212 213 213 210 205
230 224 227 231 230 234 242 247 241 237 245 252 254 252 248 244 241 235 228 237 238 231 233 244 254 263 268 267 251 245 259 261 250 252 249 234 232 225 186 174 178 180 181 181 181 184 186 188 187 184 187 191 193 194 188 184 189 186 173 171 174 174 175 176 176 178 179 180 181 183 184 186 190 194 195 194 196 198 203 207 209 210 211 210 209 209 206
225 219 219 227 237 241 243 249 252 245 238 241 249 254 253 251 252 261 312 319 290 275 241 229 227 236 245 254 255 240 249 261 260 253 251 245 244 241 214 186 178 177 182 182 181 183 181 181 182 182 185 189 190 190 185 182 184 180 169 169 172 174 175 175 175 176 176 177 179 178 179 182 186 188 190 191 192 194 199 205 206 208 209 208 205 202 199
217 220 223 232 246 245 237 238 245 251 249 243 244 252 256 261 264 276 328 327 330 344 311 251 233 241 234 229 233 231 234 246 255 258 259 260 259 254 246 235 201 181 183 182 177 175 174 176 180 181 183 185 186 184 180 178 178 173 168 170 172 173 174 174 174 175 175 175 174 173 175 178 180 182 185 188 190 192 199 205 205 199 197 197 196 194 193
208 215 227 231 233 232 225 212 183 111 80 17 21 349 286 299 315 338 360 340 335 339 325 320 348 323 265 232 222 227 229 231 236 247 255 257 260 260 256 253 230 188 182 180 172 169 171 175 177 176 177 181 181 178 175 175 174 168 167 170 172 172 171 171 172 173 174 173 169 169 172 174 175 180 183 185 187 190 194 199 199 192 185 182 182 185 191
205 207 222 226 230 231 208 176 138 109 152 69 42 316 264 3 13 11 12 354 341 342 337 338 351 341 309 281 247 235 234 231 231 239 244 244 247 247 245 248 240 195 175 172 168 166 169 172 173 172 174 177 177 175 173 171 169 168 168 170 169 169 169 169 170 170 170 170 167 167 171 174 176 178 179 180 182 183 186 189 187 181 179 175 174 185 198
216 214 221 226 234 222 176 167 161 152 163 124 91 237 238 26 16 10 11 359 354 358 347 337 331 320 314 306 297 285 264 244 237 246 252 245 234 228 236 244 227 179 165 162 160 164 168 170 170 169 170 173 174 173 170 167 167 168 167 166 165 165 166 166 165 165 167 167 166 167 170 172 173 172 173 175 174 169 169 171 166 164 169 171 174 188 203
224 223 225 233 236 200 164 178 191 149 150 191 222 221 184 13 357 1 0 348 352 355 342 337 331 315 312 308 303 300 294 279 260 260 288 313 284 247 234 211 147 140 148 150 154 163 167 167 167 165 166 168 169 170 168 167 166 163 161 161 160 160 161 160 159 161 162 162 164 166 169 169 165 165 169 171 168 161 156 161 169 168 168 173 181 190 199
221 225 229 236 235 206 191 197 190 170 190 215 219 172 45 8 356 1 355 347 353 353 340 332 323 315 317 315 305 297 303 318 320 287 321 23 352 305 225 141 127 131 137 139 148 159 163 164 163 162 163 163 163 168 169 164 160 157 155 154 153 152 153 153 154 156 156 158 161 164 165 165 162 163 166 167 168 168 165 171 181 180 180 186 190 193 200
216 219 223 229 231 216 209 202 186 185 209 191 54 31 32 30 16 7 3 360 358 350 338 328 320 316 318 320 314 303 310 352 359 321 300 73 55 21 79 122 132 137 134 137 153 161 164 166 162 159 159 157 160 167 165 155 151 149 147 146 144 144 145 146 148 150 151 154 159 159 160 161 159 159 160 160 165 169 169 173 178 176 181 190 193 197 206
223 224 223 227 242 208 192 182 156 116 86 71 51 24 35 45 27 15 12 5 358 349 338 327 320 315 316 324 325 317 330 21 31 327 299 97 111 113 109 120 131 133 133 146 160 163 164 164 160 157 156 154 156 158 152 145 142 140 138 139 137 136 138 138 140 145 148 152 155 156 157 158 156 153 152 153 158 161 165 176 181 180 184 192 198 204 204
204 215 258 96 83 113 147 142 126 109 90 68 50 42 48 48 33 28 23 7 3 5 359 349 340 335 335 341 345 348 359 12 18 357 318 68 115 125 129 130 131 135 142 149 154 156 154 151 151 154 154 149 144 141 138 137 135 133 133 134 132 132 134 135 138 143 147 150 151 152 155 157 155 151 148 150 155 158 168 184 190 190 190 193 202 206 194
62 49 33 52 67 72 107 118 114 108 100 81 67 64 60 59 58 53 48 35 28 28 25 15 9 5 2 0 358 358 3 7 4 351 323 288 149 133 133 134 136 142 150 154 152 147 138 132 132 139 142 136 129 127 130 131 130 130 130 130 130 132 134 137 141 143 142 144 147 150 152 154 152 150 149 151 155 164 181 195 197 195 193 194 200 199 184
25 29 17 37 45 38 86 107 83 76 86 89 85 83 76 72 70 63 59 55 47 41 36 28 24 21 16 13 9 1 1 10 10 355 329 315 316 131 137 142 147 150 154 153 145 133 125 123 123 123 124 123 122 126 131 131 129 129 129 128 129 130 132 135 138 138 135 135 139 142 145 146 145 147 151 156 161 172 188 198 198 197 199 200 197 188 180
77 111 334 46 61 49 45 69 69 66 75 75 70 73 78 79 76 68 61 58 54 48 40 31 30 31 23 17 13 6 2 5 2 1 10 3 346 338 35 121 132 135 130 125 123 119 120 126 125 120 120 126 132 134 133 130 126 123 123 123 123 123 124 125 127 130 132 132 133 134 138 141 144 148 157 166 171 179 191 198 197 200 206 203 188 179 180
97 139 236 78 84 70 55 61 68 67 70 70 66 66 68 70 73 70 65 61 59 56 50 41 38 38 32 22 13 6 7 6 354 348 7 26 15 352 346 3 59 96 104 109 115 116 116 120 121 120 123 130 133 129 125 123 121 118 117 119 121 121 122 123 126 131 134 133 133 133 132 135 139 142 155 167 169 170 178 187 195 205 207 189 172 173 177
125 123 179 79 91 82 55 49 57 64 71 75 74 70 66 63 62 64 66 64 60 57 53 49 45 44 42 35 22 9 0 352 346 346 353 12 36 27 352 343 13 76 102 108 107 107 108 111 115 118 120 121 120 118 119 120 120 119 120 122 123 126 132 137 139 142 141 140 142 142 138 137 136 130 129 140 150 155 159 160 176 196 188 169 163 167 171
116 87 78 70 95 99 71 41 42 52 61 70 74 73 71 69 64 60 61 61 57 54 50 44 39 35 41 47 41 28 14 352 330 321 320 332 64 117 252 269 284 99 104 103 101 102 107 111 113 112 112 111 111 113 118 121 123 125 128 129 130 137 143 144 144 147 147 148 151 149 144 145 143 133 123 121 127 138 144 141 148 164 167 165 169 173 177
117 108 91 82 91 94 82 58 48 43 43 57 66 66 66 69 67 63 61 58 55 54 49 42 34 26 28 38 42 39 34 24 352 285 251 192 159 164 169 155 123 93 86 86 90 95 99 103 104 105 106 108 110 115 121 127 130 133 135 137 142 146 144 142 147 152 148 147 153 150 140 145 151 145 135 127 121 122 132 139 146 153 155 158 167 175 182
127 127 101 92 93 90 85 76 64 52 45 47 52 54 57 62 66 66 63 59 57 57 55 50 41 31 27 28 30 33 32 24 10 354 353 39 76 90 91 83 75 72 75 77 81 87 92 96 100 103 105 108 113 119 126 131 134 139 144 149 149 142 138 142 152 153 143 143 150 149 144 149 158 160 153 144 134 128 130 137 146 151 151 152 160 169 177
79 114 95 93 96 95 90 81 67 59 55 50 47 47 47 52 62 67 68 65 60 57 57 55 48 42 38 31 24 26 30 23 12 7 10 23 36 46 58 66 69 71 76 79 81 86 91 95 97 100 104 109 115 121 127 132 138 146 153 148 139 136 140 147 148 142 139 143 150 154 156 157 162 170 175 168 158 150 143 140 145 152 155 158 165 172 178
48 92 94 92 91 83 79 83 79 69 61 54 52 48 42 43 53 60 63 63 58 53 51 48 45 46 45 37 27 24 26 24 18 15 18 19 20 22 30 49 68 74 74 78 83 87 91 93 93 95 100 105 111 117 123 128 133 134 127 125 129 135 143 146 142 139 145 152 155 160 163 162 167 178 182 176 169 164 161 160 157 150 150 158 164 171 175
55 55 56 78 83 73 68 81 97 93 81 70 65 58 48 45 47 47 48 51 52 51 43 36 37 42 40 33 27 22 22 23 19 17 19 18 15 13 12 23 49 64 65 70 79 83 87 92 93 95 99 103 106 112 119 124 125 119 117 122 130 137 143 148 148 151 158 161 160 159 160 163 172 180 179 177 176 173 172 173 161 145 146 155 157 160 166
61 60 61 71 77 74 66 65 77 87 86 79 75 72 65 58 52 47 44 44 49 52 42 29 28 36 42 40 32 21 20 21 15 14 18 17 16 14 9 12 28 42 43 46 54 66 81 92 94 97 104 113 118 123 133 136 130 125 125 128 133 140 151 160 160 158 159 160 157 157 161 168 178 181 178 178 176 170 170 168 151 139 146 154 152 151 158
77 79 83 83 80 78 73 64 62 69 72 70 71 72 71 72 69 61 48 40 44 51 44 27 19 26 35 42 42 34 28 19 12 14 18 16 14 15 12 11 17 24 24 22 23 32 54 73 85 96 110 129 138 141 145 144 136 135 138 142 148 155 163 164 155 148 147 144 144 152 162 173 180 179 175 176 174 166 160 152 140 138 150 156 153 153 157
89 85 85 84 79 75 72 67 68 69 65 65 67 67 66 71 76 76 66 48 41 46 40 22 11 17 22 26 36 39 30 18 13 18 21 17 16 16 14 13 15 14 9 5 4 7 15 25 53 97 115 133 145 150 153 150 153 159 155 151 157 162 162 156 146 141 141 140 141 149 161 170 174 174 171 173 175 164 151 145 143 145 153 158 158 159 161
83 75 71 69 71 73 72 69 69 66 62 59 60 59 58 59 61 64 66 62 57 59 48 17 353 354 4 11 19 28 28 23 21 23 21 17 16 17 16 14 12 8 4 360 356 353 352 354 5 69 103 119 147 160 161 160 170 176 160 145 147 151 149 149 149 146 145 146 150 158 168 171 174 174 172 175 174 159 150 154 155 152 157 165 164 163 167
66 64 60 58 61 67 69 69 69 69 67 63 56 51 53 58 57 57 59 64 73 87 98 116 263 292 339 358 7 23 32 30 29 31 26 16 11 9 5 0 358 358 357 354 347 338 336 341 355 25 40 63 163 171 167 170 182 180 152 137 140 146 146 148 153 152 151 156 164 174 178 175 174 173 170 173 170 157 155 166 166 157 163 171 163 161 173
65 67 65 64 65 68 70 75 77 75 73 71 66 56 49 51 59 64 62 61 65 66 62 73 125 160 155 24 28 57 52 33 29 51 37 18 7 357 347 343 345 343 338 342 343 335 331 336 347 355 345 314 247 205 185 182 190 184 162 150 151 154 153 152 154 158 163 169 174 177 173 169 169 168 165 166 165 157 157 167 168 164 165 163 157 165 176
69 70 67 68 67 66 67 74 77 75 75 77 77 72 63 54 56 60 58 55 54 50 41 37 44 56 53 36 35 53 55 31 24 54 55 43 17 341 323 322 329 317 296 281 305 308 309 317 322 320 314 294 261 229 203 192 195 194 177 160 156 159 164 165 167 170 171 168 166 166 159 151 151 156 159 163 164 159 159 165 168 161 149 141 151 169 171
73 67 64 67 68 64 63 65 66 68 73 75 73 74 76 74 68 61 58 57 53 48 44 44 43 46 47 40 35 40 33 15 11 28 36 30 349 304 289 290 306 294 258 197 258 292 297 313 303 277 271 286 283 223 170 171 183 184 166 152 154 163 171 172 173 166 145 140 141 141 138 140 146 155 160 161 162 161 161 163 164 156 146 146 158 170 168
81 73 66 64 65 64 65 71 75 75 74 72 70 68 68 71 73 69 63 61 55 45 43 50 52 49 48 51 54 53 38 18 15 30 33 11 356 356 4 10 3 3 34 41 11 4 8 0 330 281 269 294 318 108 121 138 162 163 155 152 157 164 164 160 153 134 124 129 131 130 132 138 144 149 152 156 160 163 166 168 170 162 152 153 162 167 166
76 74 72 69 64 58 62 72 77 77 72 68 65 61 57 63 75 77 69 59 53 46 45 52 53 46 40 44 55 63 57 38 29 41 59 52 33 34 37 25 16 23 31 14 3 7 7 355 345 340 329 343 38 80 103 148 165 160 158 158 161 163 157 147 138 132 132 136 138 139 141 142 144 149 156 161 164 168 173 176 178 171 157 154 158 162 167
77 77 81 81 75 64 64 68 67 67 68 68 67 61 55 57 65 70 65 52 42 40 44 48 47 41 34 34 41 44 42 39 35 31 37 59 80 75 61 42 32 31 21 7 7 10 5 3 20 34 25 34 57 62 72 133 154 154 150 147 145 142 136 130 126 128 134 139 144 147 149 151 153 158 161 157 156 166 171 162 157 168 170 156 153 159 170
74 75 76 79 78 73 71 71 69 65 63 62 62 61 57 52 53 58 59 48 37 36 39 41 39 33 25 33 45 34 23 28 38 32 21 29 63 81 72 51 40 35 30 23 21 19 18 29 51 52 39 46 61 66 79 100 111 124 135 135 130 127 125 122 122 128 136 144 150 153 156 159 160 159 154 147 151 161 161 146 148 180 199 175 162 170 182
73 73 72 72 73 71 69 72 76 74 69 65 65 65 64 61 61 61 59 50 42 40 39 38 36 29 23 37 57 52 34 37 45 40 29 36 54 65 60 43 33 31 33 32 25 25 36 46 51 49 51 61 67 70 83 94 98 110 128 133 134 137 136 132 133 142 151 155 158 164 167 164 156 146 140 146 159 169 168 166 178 198 204 190 177 177 180
75 75 73 72 73 74 74 75 76 76 76 74 71 69 69 70 73 77 78 70 60 54 50 47 47 42 34 34 41 44 43 53 59 49 39 45 55 57 58 53 41 33 33 37 35 36 45 52 52 49 53 63 62 54 59 87 100 107 120 127 130 137 144 146 150 156 159 161 167 176 174 162 154 154 166 184 191 184 178 182 192 201 203 200 198 196 189
69 71 72 72 75 79 82 80 75 72 71 69 68 68 68 65 64 68 75 75 68 60 54 52 57 61 56 45 37 30 29 47 65 64 51 50 54 50 47 53 52 43 39 39 42 44 45 49 52 51 52 58 56 44 42 77 110 112 124 135 136 139 149 156 156 153 151 158 168 170 171 172 170 169 180 196 196 176 167 177 191 195 206 219 224 232 233
64 65 66 65 66 68 73 76 76 76 73 67 64 65 68 67 61 56 57 60 62 60 52 45 48 59 66 65 60 48 32 35 50 58 53 48 49 44 38 40 45 42 37 35 39 42 44 47 53 55 59 65 60 47 43 63 88 95 112 133 141 148 157 162 155 148 151 162 169 170 182 191 173 149 155 209 214 176 168 187 196 200 216 220 214 222 276
65 66 69 73 72 67 65 68 72 76 80 78 68 57 57 65 69 61 51 51 57 64 64 54 44 41 48 56 61 62 59 54 55 55 55 56 46 35 33 37 37 30 29 35 41 42 42 46 53 65 75 73 65 57 61 67 70 78 105 127 135 139 143 144 143 148 158 167 168 174 192 195 164 138 153 208 213 147 127 151 176 174 159 203 233 293 319
72 67 68 72 75 71 67 65 60 56 61 70 68 57 52 57 64 69 77 79 72 74 80 71 50 36 44 52 46 40 46 57 56 51 59 84 85 56 39 40 38 29 28 39 45 43 42 42 45 63 81 62 34 28 67 93 88 79 80 98 113 127 139 140 132 130 148 163 167 172 184 195 197 191 183 177 159 106 89 86 66 26 31 33 324 280 292
81 81 77 70 67 71 76 77 70 61 55 56 59 55 48 40 31 26 28 28 23 47 87 79 56 45 57 66 57 37 29 37 40 33 31 50 76 75 61 51 43 33 30 43 49 42 33 27 23 31 55 32 8 359 4 139 144 149 156 149 130 120 125 137 144 153 164 174 189 200 194 199 242 244 167 145 142 132 88 64 5 303 290 279 262 256 268
65 78 84 76 60 53 60 69 70 60 40 30 41 44 35 32 33 26 15 9 10 25 59 64 51 41 49 60 56 41 28 25 30 29 21 19 27 38 48 58 54 40 27 33 52 45 32 26 23 11 353 351 347 338 325 318 307 171 170 173 170 168 166 166 182 195 186 173 172 209 209 209 278 315 337 134 160 175 162 144 296 276 264 268 274 283 299
30 38 62 70 62 48 44 52 59 45 14 6 22 26 13 13 41 47 23 11 13 23 36 43 38 29 30 36 36 31 26 23 26 29 25 21 19 14 8 15 41 43 26 15 28 44 33 23 17 358 321 323 326 323 323 328 331 333 289 259 248 185 153 128 94 231 194 173 167 193 224 230 247 271 290 294 272 205 176 184 226 274 19 358 337 319 308
27 28 40 53 60 57 46 39 45 42 17 360 7 13 4 1 27 43 28 12 13 20 29 32 26 19 20 24 22 18 18 19 18 17 17 19 19 11 359 354 3 18 15 2 355 356 70 40 14 352 315 306 309 312 321 329 332 335 339 326 307 292 97 72 38 2 313 231 207 198 197 212 228 229 233 259 270 256 211 205 217 222 345 331 309 290 288
37 40 37 38 51 59 52 39 40 43 24 3 11 21 11 359 10 32 29 16 9 9 18 22 13 5 7 13 15 11 11 10 5 4 6 10 11 6 356 353 358 6 7 1 355 357 6 24 62 210 263 301 305 305 312 320 324 325 325 320 313 309 315 314 291 272 291 313 307 270 228 235 243 235 227 235 247 249 245 243 245 254 269 272 267 266 276
42 45 45 44 48 52 48 36 33 33 24 15 21 22 9 354 355 10 25 29 21 10 8 8 359 354 360 8 8 4 5 4 1 2 6 7 5 3 1 0 2 6 9 6 1 2 6 12 19 22 13 359 347 337 328 320 308 295 294 302 310 315 320 323 319 301 279 277 283 287 290 293 287 269 257 257 257 251 247 247 250 254 261 262 258 260 270
Height
640 635 632 628 627 631 633 634 637 639 641 644 647 648 644 647 664 669 654 651 660 652 638 633 630 627 627 626 625 625 626 628 629 630 635 640 641 641 642 644 645 646 649 650 651 653 654 658 662 666 670 674 676 680 683 685 687 689 692 696 699 703 706 710 713 716 720 723 725 728 731 733 736 739 741 744 746 748 751 754 756 759 760 762 763 765 767
636 635 634 631 629 631 630 627 626 630 634 637 641 641 637 639 648 647 642 648 651 642 635 630 622 620 621 620 621 624 626 628 629 633 637 638 639 641 643 645 645 645 646 647 649 652 654 656 659 662 666 669 672 675 678 681 684 685 689 692 695 699 702 706 710 713 716 720 722 725 727 730 732 735 738 741 743 746 748 750 753 756 758 760 761 763 765
640 632 631 632 633 636 635 629 623 625 630 631 632 636 636 638 642 638 637 649 649 634 627 625 621 620 620 621 625 626 625 626 627 631 635 634 634 638 641 642 643 643 644 645 647 649 652 653 656 659 663 665 669 672 674 677 680 682 685 688 692 695 698 702 706 710 713 716 719 721 724 726 729 732 735 738 740 743 746 748 750 753 755 756 758 760 763
651 633 628 631 632 637 642 639 631 628 630 627 622 624 631 636 641 640 642 650 647 631 622 622 621 621 623 625 625 625 624 621 622 626 629 629 630 634 636 637 638 640 641 642 644 646 647 650 653 657 660 663 666 667 670 673 676 679 681 684 688 692 695 699 703 706 710 713 715 718 721 724 727 730 733 736 738 741 743 745 747 749 752 753 755 757 759
655 638 630 629 636 650 651 638 628 627 628 624 619 621 625 625 630 641 646 642 633 624 621 624 624 623 625 624 622 622 622 620 620 621 622 623 624 627 630 632 633 634 635 636 639 640 642 646 649 652 656 661 663 664 666 670 673 676 678 680 685 688 692 696 699 702 706 709 712 716 718 722 725 728 731 733 736 739 741 743 745 747 749 751 753 755 757
656 643 634 638 656 667 649 621 614 621 623 623 625 626 622 615 616 624 629 626 622 621 621 623 625 623 620 618 615 614 616 617 620 620 618 618 618 619 622 625 626 628 629 631 633 634 637 641 644 648 653 657 661 663 665 668 671 673 675 678 682 685 689 693 696 700 704 707 710 714 716 720 723 725 728 731 733 737 739 742 743 745 747 749 751 753 755
650 642 645 665 675 658 629 611 608 611 613 615 619 620 613 609 609 612 618 622 619 617 617 617 619 619 615 612 610 609 610 612 615 618 618 615 614 614 616 619 622 624 625 627 629 630 634 637 641 646 650 654 659 662 663 665 668 670 673 676 679 683 687 690 694 698 701 704 708 711 714 718 720 723 726 729 732 735 737 739 741 742 744 747 749 752 753
647 648 658 672 663 634 618 617 612 609 613 616 623 626 617 608 607 611 621 625 619 616 615 611 611 613 611 610 610 608 607 607 607 611 612 610 610 610 611 614 617 618 618 621 623 625 629 634 638 642 646 650 656 659 661 663 666 668 671 674 677 681 684 688 692 695 699 703 706 709 712 716 719 722 725 727 730 733 735 738 740 740 743 745 747 750 752
643 653 657 654 647 637 631 626 616 614 618 618 624 635 628 612 608 613 621 626 621 620 618 612 610 610 611 615 614 606 604 604 602 603 602 602 604 604 604 605 608 609 610 612 616 621 625 629 633 637 642 647 652 655 658 660 663 666 669 672 675 679 682 686 690 694 697 701 704 708 711 714 718 721 724 727 729 732 735 737 739 740 741 743 746 748 751
634 649 659 657 659 655 640 626 615 610 614 612 616 635 637 620 612 615 622 625 623 622 621 618 617 619 623 627 618 604 599 599 599 600 599 598 599 600 600 601 601 602 604 606 610 615 619 623 627 632 637 643 648 652 654 657 660 663 666 670 674 678 682 686 689 693 697 700 703 707 710 713 717 720 723 727 729 731 734 737 738 739 740 742 745 747 749
631 647 662 661 659 649 631 622 615 610 611 608 615 641 648 628 616 618 621 624 624 623 624 621 621 630 639 636 619 601 595 594 594 598 598 595 595 595 595 596 596 596 598 600 605 610 614 619 623 627 633 639 644 649 651 653 657 660 664 669 673 676 681 685 689 692 695 699 702 706 709 713 716 719 722 725 728 730 734 736 738 739 740 742 745 746 749
637 645 655 651 644 635 624 618 614 609 607 609 633 664 659 631 621 622 622 625 625 623 624 623 624 632 639 633 615 599 593 591 590 593 594 592 590 590 589 589 589 591 593 597 602 607 611 615 619 623 629 636 642 646 648 651 654 657 661 667 671 676 680 684 687 691 694 698 701 704 708 712 714 717 720 723 726 729 732 735 737 739 740 742 744 746 748
644 648 653 648 638 627 619 615 609 605 610 625 652 666 648 627 625 624 621 625 624 622 624 626 626 625 621 615 607 598 593 593 592 591 590 587 584 583 584 585 586 589 593 596 601 606 609 614 618 622 627 634 640 645 647 649 651 654 659 665 669 674 678 682 686 690 693 697 700 704 708 711 713 717 719 722 725 727 731 734 736 738 741 743 744 746 747
644 646 650 653 644 622 610 611 607 606 626 647 650 639 626 624 626 623 621 624 622 622 625 626 625 620 612 607 604 599 597 597 596 593 588 585 586 585 582 583 587 590 594 598 603 607 611 614 617 620 625 632 639 644 646 646 648 652 658 663 668 672 676 681 685 689 693 697 701 705 708 710 713 716 719 721 724 727 730 733 735 738 741 743 744 746 746
640 645 650 659 653 622 603 610 616 617 632 642 633 622 621 624 624 625 627 626 624 626 627 625 623 620 614 611 607 602 599 596 596 598 594 589 591 593 590 589 588 590 594 600 604 608 611 615 617 620 625 632 638 643 645 646 647 652 656 661 666 671 675 680 684 688 692 696 700 703 706 708 712 715 718 721 723 726 730 733 736 738 740 742 744 745 745
634 646 645 642 634 612 601 615 628 627 625 623 621 624 626 625 626 630 632 631 628 628 628 627 624 621 618 615 610 605 603 599 598 603 603 595 591 592 596 596 593 592 596 600 604 608 612 615 618 622 626 633 638 643 645 645 647 651 656 661 666 670 675 679 683 687 691 695 698 700 703 707 710 714 718 721 724 727 731 733 736 738 740 742 743 742 743
622 631 628 618 613 607 605 614 622 622 620 618 619 625 629 629 629 630 633 635 632 629 631 631 629 627 624 620 615 611 608 604 602 604 605 599 592 590 594 597 597 598 601 602 605 609 612 615 619 623 628 633 638 642 645 646 647 651 656 661 666 670 675 679 683 687 691 694 696 699 702 705 708 711 716 721 725 728 731 733 735 737 738 740 740 740 741
620 624 623 616 615 615 613 613 614 613 617 620 621 626 630 631 630 631 634 636 634 633 636 637 636 636 633 629 627 622 617 614 612 612 610 604 595 592 595 597 599 601 604 607 609 611 614 618 622 627 631 634 638 642 645 648 649 652 656 661 667 671 675 679 683 687 690 693 696 699 701 703 705 708 713 719 724 728 731 733 735 735 736 737 737 738 739
637 646 642 629 627 628 622 619 618 616 618 622 624 627 631 631 632 634 634 634 635 636 638 640 642 642 638 636 636 633 628 626 625 626 625 617 605 599 597 598 601 603 605 609 612 614 618 622 626 630 635 637 640 644 648 650 652 654 658 663 667 672 677 681 684 687 691 694 698 701 703 705 707 709 712 717 722 727 729 731 732 733 734 734 735 736 738
648 661 655 638 634 636 631 628 630 628 628 630 629 629 632 633 635 636 634 635 639 641 642 644 644 644 643 642 640 638 636 634 632 631 630 627 622 617 608 602 602 604 607 612 616 620 624 627 630 634 637 641 645 647 649 652 653 655 659 664 669 674 678 682 686 690 693 696 699 702 705 707 709 711 713 716 721 724 727 729 730 730 731 732 733 735 737
652 660 657 644 639 643 641 638 638 637 637 638 638 637 637 637 638 639 638 639 642 645 647 647 646 647 648 646 645 643 641 639 638 636 632 630 631 633 629 621 614 611 614 618 622 625 628 631 633 636 640 644 647 647 649 652 653 656 661 666 671 676 680 684 688 692 695 697 699 702 705 708 710 712 714 716 719 722 725 726 727 728 729 730 732 734 736
659 659 658 651 650 656 655 649 647 645 643 643 644 645 645 645 645 645 645 646 646 647 648 648 648 651 651 649 648 647 646 646 644 640 637 635 634 637 641 639 632 626 625 626 626 628 632 635 638 640 643 645 646 647 650 652 655 659 664 668 673 677 681 686 690 693 695 697 700 703 706 708 710 712 715 717 719 721 723 725 726 727 729 730 732 734 735
662 657 656 651 651 657 660 656 654 652 648 647 649 649 649 650 650 649 650 652 652 652 652 651 651 652 652 650 649 650 651 653 651 646 644 643 642 643 648 649 643 636 632 630 630 632 635 639 641 642 644 645 647 649 652 655 658 662 666 670 674 678 682 686 689 691 693 696 700 704 707 709 711 713 715 717 719 721 723 725 726 727 728 730 732 733 735
660 657 654 650 650 655 658 659 659 657 654 654 654 653 652 652 652 653 654 656 656 657 657 656 656 656 654 653 653 655 657 658 657 654 651 649 647 649 650 649 644 637 633 633 634 636 638 641 642 644 646 648 650 652 655 658 661 664 667 670 674 677 681 684 687 689 692 696 700 703 706 709 712 714 715 717 719 721 723 724 726 727 728 730 731 733 734
657 654 649 647 650 655 657 658 660 661 660 659 658 657 656 655 655 656 657 659 660 660 662 663 662 662 660 658 658 658 659 658 659 658 654 650 648 647 645 643 640 637 636 638 639 640 642 644 645 647 650 652 654 656 659 661 663 666 669 671 673 677 680 683 686 689 693 697 700 702 704 707 711 714 716 716 717 720 723 725 726 728 728 730 731 732 734
656 654 650 649 651 655 657 660 663 664 663 663 662 661 660 659 658 658 659 661 662 663 665 668 668 667 667 666 665 664 663 663 664 662 657 653 649 646 644 644 643 642 643 643 644 645 648 649 650 652 654 656 658 660 662 664 666 668 670 672 674 677 680 682 685 689 693 697 700 702 702 704 708 712 715 715 716 719 722 724 726 728 729 730 731 732 733
659 658 658 658 659 659 660 663 666 666 665 665 665 665 664 663 661 660 660 661 662 664 666 669 670 670 669 669 670 670 669 668 667 664 660 657 655 652 650 649 648 648 649 648 649 651 651 652 654 656 658 660 662 663 665 667 668 670 672 674 676 679 682 683 685 688 692 695 698 700 702 703 706 710 713 714 715 717 720 722 724 726 728 730 730 731 733
664 663 662 663 666 666 665 664 665 666 667 667 667 667 667 666 664 664 664 663 663 664 667 669 670 670 670 670 671 670 669 668 667 665 663 662 661 659 656 654 652 653 653 652 653 654 654 655 657 659 662 664 666 667 668 670 671 672 674 676 679 682 685 686 687 689 691 693 695 697 700 702 705 708 710 711 714 716 718 720 722 724 727 728 730 731 732
668 667 666 666 667 668 668 666 665 665 667 668 668 669 669 669 670 671 670 668 665 665 668 671 672 671 671 671 672 672 670 670 669 668 667 667 667 665 662 659 658 658 658 657 658 657 658 659 660 661 664 667 669 671 672 672 673 674 676 678 680 683 685 687 689 690 691 691 693 695 698 701 703 706 707 710 712 713 716 718 720 722 725 727 728 730 732
671 671 672 671 671 671 672 673 672 671 670 670 670 671 671 672 674 676 675 672 669 668 670 673 674 673 672 672 673 673 674 674 674 673 671 671 670 668 666 664 663 663 663 663 662 662 662 662 662 664 667 669 671 673 674 674 674 676 678 680 682 684 686 688 689 690 690 691 692 695 698 700 702 704 706 708 710 711 714 716 719 721 724 726 727 729 730
673 673 674 674 674 675 676 677 676 675 674 673 673 674 674 674 676 677 676 674 672 671 672 675 676 676 674 673 673 673 673 674 675 675 675 675 674 672 671 669 669 669 669 668 668 667 666 666 666 668 669 671 672 673 674 675 676 678 680 682 684 685 687 688 689 689 690 691 693 695 698 700 702 703 705 707 708 710 712 715 718 720 723 725 726 728 729
674 675 676 677 677 678 680 680 680 679 678 677 677 677 676 675 674 674 675 676 676 676 678 681 681 679 677 675 674 673 673 674 675 676 676 677 677 676 675 675 674 674 674 673 672 671 671 670 670 671 671 672 673 674 675 677 678 679 681 683 684 686 688 689 689 690 691 693 694 696 698 699 701 703 704 706 708 709 712 714 716 718 721 724 725 726 727
677 679 681 682 681 682 682 682 682 681 681 680 679 679 677 676 676 676 678 679 680 682 684 686 685 684 682 679 677 676 675 676 677 677 678 678 678 677 677 677 677 676 676 675 674 674 674 673 673 674 674 674 675 676 678 679 679 681 683 684 685 687 688 689 690 691 692 694 695 696 698 699 701 702 704 705 707 709 711 714 715 717 720 722 723 724 726
679 681 682 682 681 682 683 682 682 682 682 682 682 681 680 679 679 680 682 682 683 684 685 685 685 685 684 682 680 679 678 679 679 679 678 679 679 679 678 678 677 676 676 676 676 675 675 676 676 676 676 677 677 678 679 680 681 682 683 685 686 687 688 689 690 691 693 694 695 696 697 699 700 702 704 705 706 709 711 713 715 717 719 721 722 724 725
680 680 680 679 679 680 680 680 681 682 682 683 683 682 682 682 682 683 684 685 685 685 684 684 683 682 681 679 678 677 678 679 679 678 679 679 680 680 679 679 679 677 677 679 679 678 679 679 680 679 679 679 680 679 679 680 681 682 683 684 686 687 688 689 690 692 693 694 695 696 698 699 701 703 705 706 707 709 711 713 715 717 719 721 722 723 725
681 682 681 680 681 681 681 681 682 682 682 682 682 682 683 683 684 686 687 687 687 687 685 685 684 682 680 679 678 678 678 679 678 678 679 679 680 680 680 681 680 679 680 681 681 681 682 682 682 681 681 681 680 679 679 680 681 682 683 684 685 687 688 689 691 693 693 694 695 697 698 699 702 704 705 706 707 709 710 713 715 716 719 721 722 723 725
681 682 683 682 682 682 682 683 683 683 682 682 682 683 683 684 685 688 689 689 689 689 687 686 685 684 683 682 681 681 681 681 680 680 681 681 680 680 681 681 682 681 681 681 681 682 682 682 682 682 682 681 680 679 679 680 681 682 683 685 686 687 688 689 691 693 694 694 696 699 700 700 702 704 705 706 708 709 711 713 714 716 718 720 721 723 724
682 683 684 685 684 684 683 683 683 683 683 684 684 685 686 686 688 689 690 690 691 690 689 688 688 686 685 684 684 683 683 683 682 682 682 682 682 682 682 683 683 683 683 683 683 683 683 683 682 682 681 681 681 680 680 681 682 683 684 685 687 687 688 689 691 693 694 696 698 700 701 701 703 704 705 706 708 709 711 713 714 715 717 719 721 723 724
684 685 685 686 685 685 684 684 684 685 685 686 688 689 689 689 689 690 691 691 691 691 691 690 690 688 687 687 686 685 685 684 684 684 684 683 684 684 684 685 685 685 685 685 685 684 684 683 683 682 682 682 682 682 682 682 683 683 684 686 687 688 689 690 691 693 695 696 698 699 700 702 703 704 705 707 708 710 712 713 714 716 717 718 721 722 724
686 686 686 686 686 686 686 686 688 689 689 690 691 692 692 692 691 691 692 692 693 692 692 692 691 690 689 689 688 688 687 687 686 686 685 685 686 686 687 687 688 687 687 686 686 685 685 684 683 684 684 683 683 684 684 684 684 685 686 687 688 689 689 691 692 695 696 697 698 699 700 702 704 705 706 707 709 710 712 713 714 716 717 718 720 721 722
687 687 687 687 688 689 690 691 692 692 693 694 694 695 695 695 694 694 694 694 694 694 694 694 693 692 691 690 690 690 689 689 688 688 687 688 688 689 689 690 689 689 688 687 687 687 686 685 685 685 685 685 685 686 685 685 686 686 687 688 689 689 690 692 694 695 696 697 698 699 700 702 704 706 707 709 710 711 712 713 714 714 715 716 718 719 720
689 689 690 690 692 694 695 695 695 695 696 696 696 696 696 695 695 695 695 696 696 696 695 695 694 694 693 692 692 691 691 691 691 691 690 690 691 691 691 691 691 690 689 689 688 688 687 687 687 687 687 687 687 687 687 687 688 688 689 689 690 690 691 693 694 695 696 697 698 699 700 702 704 706 708 709 709 709 710 712 712 713 714 715 716 717 718
691 691 692 693 695 696 696 697 697 697 698 697 697 696 696 696 696 696 696 696 697 696 696 696 695 695 695 695 694 693 693 692 692 693 693 692 693 693 693 692 692 692 691 690 689 689 689 689 688 688 688 688 688 688 688 689 689 690 691 691 691 692 692 693 694 695 696 697 699 700 702 703 704 705 706 707 707 707 709 710 711 712 713 714 715 716 718
694 695 696 697 697 697 698 699 699 699 699 699 698 697 697 697 697 697 697 697 698 697 697 697 696 695 696 696 695 695 695 695 694 695 695 695 694 695 694 694 693 693 692 691 691 690 690 690 690 690 690 690 690 690 690 690 691 691 692 692 693 693 694 694 695 697 698 699 700 702 702 703 703 704 704 705 706 706 707 709 710 711 713 714 715 716 717
698 699 700 700 700 700 700 700 700 699 700 700 699 698 698 698 699 699 699 699 699 698 698 697 697 696 696 695 696 696 697 696 696 697 697 697 697 697 696 695 695 694 693 692 692 692 692 692 691 691 691 691 691 691 691 692 692 693 693 694 694 695 695 696 697 698 698 699 700 701 701 702 702 703 705 706 706 707 707 708 710 711 712 714 715 716 718
702 703 703 703 702 702 702 702 701 701 700 700 700 700 699 699 699 699 699 700 699 698 698 698 697 697 697 697 697 697 697 697 697 697 697 698 698 698 698 697 697 696 695 694 694 694 693 693 692 692 692 692 691 692 692 693 694 694 695 695 696 696 696 697 698 698 699 699 700 701 701 702 702 703 704 706 707 707 708 709 710 711 712 714 715 717 718
704 705 705 705 704 703 703 702 702 702 701 701 701 701 701 701 700 700 700 700 699 698 698 698 698 698 698 699 699 699 698 698 698 698 697 697 698 698 698 698 697 697 696 696 695 695 694 694 693 693 693 693 693 693 693 694 694 695 696 696 696 696 696 697 698 698 699 700 700 700 701 701 702 702 703 705 706 707 708 709 711 712 713 714 716 717 718
705 705 705 705 705 704 704 703 703 703 704 703 703 702 703 703 702 702 701 700 699 698 698 699 700 700 700 700 701 701 700 699 699 699 699 698 698 698 698 698 697 697 696 696 695 695 695 695 694 694 694 695 695 695 695 694 694 694 694 695 695 695 696 697 697 698 698 699 699 700 700 701 702 703 703 704 706 707 708 710 712 713 714 714 715 716 717
707 706 705 706 707 706 706 705 706 706 706 705 705 704 704 704 703 703 703 702 701 701 701 701 701 702 702 701 702 702 702 701 701 701 701 700 700 699 699 698 697 697 697 696 696 696 696 696 696 696 696 697 697 697 696 695 694 694 694 694 694 694 695 696 697 697 697 697 698 699 700 701 702 703 704 705 706 707 708 710 712 713 714 715 716 716 717
709 708 707 707 708 708 708 708 708 709 709 708 707 707 706 705 704 705 705 705 704 704 703 703 704 704 704 704 704 704 703 703 703 702 702 702 701 700 700 699 698 698 697 697 697 696 696 697 697 697 698 698 698 698 697 697 696 695 695 695 695 695 695 696 696 697 697 697 697 698 700 701 702 703 704 705 707 708 709 710 712 713 714 715 716 717 717
710 710 710 709 709 710 711 711 711 711 711 711 709 709 709 708 707 707 707 707 706 706 706 706 707 707 706 706 705 705 705 705 705 704 704 703 702 701 701 700 700 699 699 698 698 697 697 697 697 698 698 699 699 699 698 698 697 697 696 696 696 696 696 696 696 697 697 698 698 698 699 700 701 702 704 705 706 707 709 710 711 712 713 714 715 716 716
711 711 712 712 712 713 713 713 713 712 712 712 711 711 711 709 708 708 708 709 709 709 709 709 708 708 707 707 707 706 706 706 706 706 705 705 704 703 702 702 702 701 701 700 700 699 699 698 698 698 699 699 699 699 699 698 698 698 698 698 697 697 697 697 697 697 698 698 699 699 700 700 701 702 703 704 705 706 708 709 710 711 712 713 713 714 715